Station Historical Data
Daily Summary for August 5, 2017 Units:  Metric    English   Both
« Previous Day
Next Day »
Daily Weekly Monthly Yearly Custom
  High: Low: Average:
Temperature: 29.6 °C 20.4 °C 24.7 °C
Dew Point: 21.7 °C 15.9 °C 19.3 °C
Humidity: 90% 53% 73%
Wind Speed: 3.2km/h 0km/h 0.2km/h
Wind Gust: 9.7km/h - -
Wind- - SSW
Pressure: 1018.8 hPa 1015.5 hPa -
Precipitation: 0 mm    
Historical Graphs
 
 
Tabular Data for August 5, 2017
Time Temperature Dew Point Pressure Wind Wind Speed Wind Gust Humidity Rainfall Rate (Hourly) Conditions
00:00 24.4 °C 20.9 °C 1015.8 hPa Calm     81% 0 mm BKN
00:05 24.4 °C 20.8 °C 1015.8 hPa Calm     80% 0 mm OVC
00:10 24.4 °C 20.7 °C 1015.8 hPa Calm     80% 0 mm OVC
00:15 24.3 °C 20.4 °C 1015.8 hPa Calm     79% 0 mm OVC
00:20 24.3 °C 20.2 °C 1015.8 hPa Calm     78% 0 mm BKN
00:25 24.2 °C 20.2 °C 1015.8 hPa Calm     78% 0 mm BKN
00:30 24.2 °C 20.1 °C 1015.8 hPa Calm     78% 0 mm BKN
00:35 24.2 °C 20.3 °C 1016.1 hPa Calm     79% 0 mm BKN
00:40 24.2 °C 20.7 °C 1015.8 hPa Calm     81% 0 mm BKN
00:45 24.2 °C 20.9 °C 1015.8 hPa Calm     82% 0 mm BKN
00:50 24.2 °C 20.9 °C 1016.1 hPa Calm     82% 0 mm FEW
00:55 24.2 °C 21.3 °C 1015.8 hPa Calm     84% 0 mm FEW
01:00 24.2 °C 21.3 °C 1015.8 hPa Calm     84% 0 mm FEW
01:05 24.2 °C 21.5 °C 1015.8 hPa Calm   1.6 km/h 85% 0 mm FEW
01:10 24.2 °C 21.7 °C 1015.8 hPa Calm     86% 0 mm FEW
01:15 24.2 °C 21.7 °C 1015.8 hPa Calm     86% 0 mm FEW
01:20 24.1 °C 21.6 °C 1015.8 hPa Calm   1.6 km/h 86% 0 mm -RA
01:25 24 °C 21.3 °C 1015.8 hPa Calm     85% 0 mm -RA
01:30 23.9 °C 21.4 °C 1015.8 hPa Calm   1.6 km/h 86% 0 mm -RA
01:35 23.8 °C 21.2 °C 1016.1 hPa Calm     85% 0 mm -RA
01:40 23.7 °C 21.1 °C 1016.1 hPa Calm     85% 0 mm -RA
01:45 23.6 °C 20.9 °C 1016.1 hPa Calm     85% 0 mm -RA
01:50 23.4 °C 21 °C 1016.1 hPa Calm     86% 0 mm BKN
01:55 23.4 °C 20.9 °C 1016.1 hPa Calm     86% 0 mm BKN
02:00 23.3 °C 20.8 °C 1016.1 hPa Calm     86% 0 mm BKN
02:05 23.2 °C 20.7 °C 1016.1 hPa Calm     86% 0 mm BKN
02:10 23.1 °C 20.6 °C 1016.1 hPa Calm     86% 0 mm BKN
02:15 23 °C 20.6 °C 1016.1 hPa Calm     86% 0 mm BKN
02:20 22.9 °C 20.5 °C 1016.1 hPa Calm     86% 0 mm SCT
02:25 22.9 °C 20.4 °C 1016.1 hPa Calm     86% 0 mm SCT
02:30 22.8 °C 20.4 °C 1016.1 hPa Calm     86% 0 mm SCT
02:40 22.7 °C 20.2 °C 1016.1 hPa Calm     86% 0 mm SCT
02:45 22.6 °C 19.7 °C 1016.1 hPa Calm     84% 0 mm SCT
02:50 22.5 °C 19.4 °C 1016.5 hPa Calm     83% 0 mm SCT
02:55 22.4 °C 19.4 °C 1016.1 hPa Calm     83% 0 mm SCT
03:00 22.4 °C 19.6 °C 1016.1 hPa Calm     84% 0 mm SCT
03:05 22.4 °C 19.4 °C 1016.1 hPa Calm     83% 0 mm SCT
03:10 22.4 °C 19.6 °C 1016.5 hPa Calm     84% 0 mm SCT
03:15 22.4 °C 19.6 °C 1016.1 hPa Calm     84% 0 mm SCT
03:20 22.3 °C 19.5 °C 1016.1 hPa Calm     84% 0 mm FEW
03:25 22.3 °C 19.4 °C 1016.1 hPa Calm     84% 0 mm FEW
03:30 22.3 °C 19.4 °C 1016.1 hPa Calm     84% 0 mm SCT
03:35 22.2 °C 19.4 °C 1016.1 hPa Calm   1.6 km/h 84% 0 mm SCT
03:40 22.2 °C 19.3 °C 1016.1 hPa Calm     84% 0 mm SCT
03:45 22.2 °C 19.5 °C 1015.8 hPa Calm     85% 0 mm SCT
03:50 22.1 °C 19.4 °C 1015.8 hPa Calm   1.6 km/h 85% 0 mm SCT
03:55 22.1 °C 19.4 °C 1015.8 hPa Calm     85% 0 mm SCT
04:00 22.1 °C 19.6 °C 1015.8 hPa Calm     86% 0 mm SCT
04:05 22 °C 19.6 °C 1015.8 hPa Calm     86% 0 mm BKN
04:10 22 °C 19.6 °C 1015.8 hPa Calm     86% 0 mm BKN
04:15 21.9 °C 19.5 °C 1015.8 hPa Calm     86% 0 mm BKN
04:20 21.9 °C 19.5 °C 1015.8 hPa Calm     86% 0 mm SCT
04:25 21.9 °C 19.6 °C 1015.8 hPa Calm     87% 0 mm SCT
04:30 21.9 °C 19.6 °C 1015.8 hPa Calm   1.6 km/h 87% 0 mm SCT
04:35 21.9 °C 19.6 °C 1015.8 hPa Calm     87% 0 mm SCT
04:40 21.8 °C 19.6 °C 1015.5 hPa Calm     87% 0 mm SCT
04:45 21.8 °C 19.6 °C 1015.5 hPa Calm     87% 0 mm SCT
04:50 21.8 °C 19.7 °C 1015.5 hPa Calm     88% 0 mm SCT
04:55 21.7 °C 19.7 °C 1015.5 hPa Calm     88% 0 mm SCT
05:00 21.7 °C 19.6 °C 1015.5 hPa Calm   1.6 km/h 88% 0 mm SCT
05:05 21.6 °C 19.6 °C 1015.5 hPa Calm     88% 0 mm SCT
05:10 21.6 °C 19.6 °C 1015.5 hPa Calm   1.6 km/h 88% 0 mm SCT
05:15 21.6 °C 19.5 °C 1015.5 hPa Calm     88% 0 mm SCT
05:20 21.6 °C 19.5 °C 1015.5 hPa Calm   1.6 km/h 88% 0 mm FEW
05:25 21.6 °C 19.4 °C 1015.5 hPa Calm     88% 0 mm FEW
05:30 21.5 °C 19.4 °C 1015.5 hPa Calm   1.6 km/h 88% 0 mm FEW
05:35 21.4 °C 19.4 °C 1015.5 hPa Calm     88% 0 mm FEW
05:40 21.4 °C 19.3 °C 1015.5 hPa Calm     88% 0 mm FEW
05:45 21.3 °C 19.3 °C 1015.5 hPa Calm     88% 0 mm FEW
05:50 21.3 °C 19.2 °C 1015.8 hPa Calm     88% 0 mm FEW
05:55 21.2 °C 19.3 °C 1015.5 hPa Calm     89% 0 mm FEW
06:00 21.2 °C 19.3 °C 1015.8 hPa Calm     89% 0 mm FEW
06:05 21.1 °C 19.2 °C 1015.8 hPa Calm     89% 0 mm FEW
06:10 21 °C 19.1 °C 1015.8 hPa Calm     89% 0 mm FEW
06:15 20.9 °C 19 °C 1015.8 hPa Calm     89% 0 mm FEW
06:20 20.8 °C 18.9 °C 1015.8 hPa Calm     89% 0 mm CLR
06:25 20.8 °C 18.9 °C 1015.8 hPa Calm     89% 0 mm CLR
06:30 20.7 °C 18.8 °C 1015.8 hPa Calm     89% 0 mm CLR
06:35 20.6 °C 18.8 °C 1015.8 hPa Calm     89% 0 mm CLR
06:40 20.6 °C 18.7 °C 1016.1 hPa Calm     89% 0 mm CLR
06:45 20.5 °C 18.7 °C 1016.1 hPa Calm     89% 0 mm CLR
06:50 20.5 °C 18.6 °C 1016.1 hPa Calm     89% 0 mm CLR
06:55 20.4 °C 18.6 °C 1016.1 hPa Calm     89% 0 mm CLR
07:00 20.4 °C 18.7 °C 1016.1 hPa Calm   3.2 km/h 90% 0 mm CLR
07:05 20.4 °C 18.7 °C 1016.1 hPa Calm     90% 0 mm CLR
07:10 20.4 °C 18.7 °C 1016.1 hPa Calm   3.2 km/h 90% 0 mm CLR
07:15 20.4 °C 18.7 °C 1016.5 hPa Calm     90% 0 mm CLR
07:20 20.4 °C 18.7 °C 1016.5 hPa Calm     90% 0 mm FEW
07:25 20.4 °C 18.7 °C 1016.5 hPa Calm     90% 0 mm FEW
07:30 20.4 °C 18.7 °C 1016.5 hPa Calm     90% 0 mm FEW
07:35 20.4 °C 18.7 °C 1016.8 hPa Calm   3.2 km/h 90% 0 mm FEW
07:40 20.4 °C 18.7 °C 1016.8 hPa Calm   1.6 km/h 90% 0 mm FEW
07:45 20.5 °C 18.8 °C 1016.8 hPa Calm   1.6 km/h 90% 0 mm FEW
07:50 20.6 °C 18.8 °C 1016.8 hPa Calm   1.6 km/h 90% 0 mm FEW
07:55 20.6 °C 18.9 °C 1016.8 hPa Calm     90% 0 mm FEW
08:00 20.7 °C 18.9 °C 1017.2 hPa Calm   1.6 km/h 90% 0 mm FEW
08:05 20.7 °C 18.8 °C 1017.2 hPa Calm     89% 0 mm FEW
08:10 20.8 °C 18.9 °C 1017.2 hPa Calm     89% 0 mm FEW
08:15 20.9 °C 19 °C 1017.2 hPa Calm     89% 0 mm FEW
08:20 21 °C 19.1 °C 1017.2 hPa Calm     89% 0 mm FEW
08:25 21.2 °C 19.3 °C 1017.5 hPa Calm     89% 0 mm FEW
08:30 21.3 °C 19.2 °C 1017.5 hPa Calm   1.6 km/h 88% 0 mm FEW
08:35 21.3 °C 19.3 °C 1017.5 hPa Calm   1.6 km/h 88% 0 mm FEW
08:40 21.4 °C 19.2 °C 1017.5 hPa Calm   1.6 km/h 87% 0 mm FEW
08:45 21.5 °C 19.2 °C 1017.8 hPa Calm   3.2 km/h 87% 0 mm FEW
08:50 21.7 °C 19.4 °C 1017.8 hPa Calm   1.6 km/h 87% 0 mm FEW
08:55 21.8 °C 19.4 °C 1017.8 hPa Calm   1.6 km/h 86% 0 mm FEW
09:00 22 °C 19.3 °C 1017.8 hPa Calm   3.2 km/h 85% 0 mm FEW
09:05 22.2 °C 19.5 °C 1017.8 hPa Calm   3.2 km/h 85% 0 mm FEW
09:10 22.3 °C 19.4 °C 1018.2 hPa Calm   3.2 km/h 84% 0 mm FEW
09:15 22.3 °C 19.3 °C 1018.2 hPa Calm   1.6 km/h 83% 0 mm FEW
09:20 22.6 °C 19.7 °C 1018.2 hPa Calm   1.6 km/h 84% 0 mm FEW
09:25 22.7 °C 19.7 °C 1018.2 hPa Calm   3.2 km/h 83% 0 mm FEW
09:30 22.9 °C 19.8 °C 1018.2 hPa Calm   3.2 km/h 83% 0 mm FEW
09:40 23.4 °C 19.9 °C 1018.2 hPa Calm   1.6 km/h 81% 0 mm FEW
09:45 23.5 °C 19.4 °C 1018.2 hPa Calm   1.6 km/h 78% 0 mm FEW
09:50 23.6 °C 19.7 °C 1018.2 hPa Calm   1.6 km/h 79% 0 mm FEW
09:55 23.7 °C 19.7 °C 1018.5 hPa Calm   3.2 km/h 78% 0 mm FEW
10:00 23.8 °C 19.8 °C 1018.5 hPa North 1.6 km/h 3.2 km/h 78% 0 mm FEW
10:05 23.9 °C 19.8 °C 1018.5 hPa SW 1.6 km/h 4.8 km/h 78% 0 mm FEW
10:10 24.1 °C 19.6 °C 1018.5 hPa SW 1.6 km/h 1.6 km/h 76% 0 mm FEW
10:15 24.3 °C 19.8 °C 1018.5 hPa Calm   1.6 km/h 76% 0 mm FEW
10:20 24.4 °C 19.7 °C 1018.5 hPa South 1.6 km/h 4.8 km/h 75% 0 mm FEW
10:25 24.5 °C 19.6 °C 1018.5 hPa Calm   3.2 km/h 74% 0 mm FEW
10:30 24.7 °C 19.8 °C 1018.5 hPa Calm   3.2 km/h 74% 0 mm FEW
10:35 24.9 °C 19.8 °C 1018.5 hPa SW 1.6 km/h 3.2 km/h 73% 0 mm FEW
10:40 25 °C 19.6 °C 1018.5 hPa West 1.6 km/h 4.8 km/h 72% 0 mm FEW
10:45 25.2 °C 20 °C 1018.8 hPa Calm   1.6 km/h 73% 0 mm FEW
10:50 25.4 °C 19.8 °C 1018.5 hPa Calm   1.6 km/h 71% 0 mm FEW
10:55 25.4 °C 19.8 °C 1018.5 hPa ESE 1.6 km/h 3.2 km/h 71% 0 mm FEW
11:00 25.4 °C 19.8 °C 1018.8 hPa Calm   8 km/h 71% 0 mm FEW
11:05 25.7 °C 20.1 °C 1018.8 hPa Calm   1.6 km/h 71% 0 mm FEW
11:10 25.9 °C 20.1 °C 1018.5 hPa Calm   1.6 km/h 70% 0 mm FEW
11:15 25.8 °C 19.3 °C 1018.5 hPa SW 1.6 km/h 4.8 km/h 67% 0 mm FEW
11:20 25.8 °C 19.7 °C 1018.5 hPa Calm   1.6 km/h 69% 0 mm FEW
11:25 25.9 °C 19.8 °C 1018.5 hPa Calm   1.6 km/h 69% 0 mm FEW
11:30 26.1 °C 19.7 °C 1018.5 hPa NNW 1.6 km/h 1.6 km/h 68% 0 mm FEW
11:35 26.1 °C 19.7 °C 1018.5 hPa Calm   1.6 km/h 68% 0 mm FEW
11:40 26.2 °C 19.6 °C 1018.5 hPa WNW 1.6 km/h 3.2 km/h 67% 0 mm FEW
11:45 26.3 °C 20.2 °C 1018.5 hPa Calm   1.6 km/h 69% 0 mm FEW
11:50 26.4 °C 19.8 °C 1018.5 hPa West 1.6 km/h 3.2 km/h 67% 0 mm FEW
11:55 26.6 °C 19.4 °C 1018.5 hPa Calm   3.2 km/h 65% 0 mm FEW
12:00 26.6 °C 19.5 °C 1018.5 hPa West 1.6 km/h 8 km/h 65% 0 mm FEW
12:05 26.4 °C 19.3 °C 1018.5 hPa South 1.6 km/h 4.8 km/h 65% 0 mm FEW
12:10 26.6 °C 19.7 °C 1018.2 hPa Calm   3.2 km/h 66% 0 mm FEW
12:15 26.9 °C 19.7 °C 1018.2 hPa East 1.6 km/h 1.6 km/h 65% 0 mm FEW
12:20 27.1 °C 19.9 °C 1018.2 hPa Calm   3.2 km/h 65% 0 mm SCT
12:25 27.2 °C 19.5 °C 1018.2 hPa SW 1.6 km/h 9.7 km/h 63% 0 mm SCT
12:30 27.3 °C 19.6 °C 1018.2 hPa South 1.6 km/h 4.8 km/h 63% 0 mm SCT
12:35 27.5 °C 20.3 °C 1018.2 hPa Calm   3.2 km/h 65% 0 mm SCT
12:45 27.9 °C 20 °C 1017.8 hPa Calm   1.6 km/h 62% 0 mm SCT
12:50 28.1 °C 19.9 °C 1017.8 hPa Calm   4.8 km/h 61% 0 mm SCT
12:55 28.6 °C 19.8 °C 1017.8 hPa ESE 1.6 km/h 3.2 km/h 59% 0 mm SCT
13:00 28.7 °C 19.9 °C 1017.8 hPa SW 1.6 km/h 4.8 km/h 59% 0 mm SCT
13:05 28.9 °C 20.1 °C 1017.5 hPa WSW 1.6 km/h 4.8 km/h 59% 0 mm SCT
13:10 29.2 °C 19.8 °C 1017.5 hPa NW 1.6 km/h 4.8 km/h 57% 0 mm SCT
13:15 29.3 °C 19.9 °C 1017.5 hPa Calm   3.2 km/h 57% 0 mm SCT
13:20 29.3 °C 19.6 °C 1017.5 hPa NNW 1.6 km/h 3.2 km/h 56% 0 mm SCT
13:25 29.4 °C 19.7 °C 1017.5 hPa Calm   8 km/h 56% 0 mm SCT
13:30 29.6 °C 19.3 °C 1017.5 hPa Calm   3.2 km/h 54% 0 mm SCT
13:35 29.3 °C 19.3 °C 1017.5 hPa East 1.6 km/h 3.2 km/h 55% 0 mm SCT
13:40 29.2 °C 19.8 °C 1017.5 hPa Calm   3.2 km/h 57% 0 mm SCT
13:45 29.1 °C 19.7 °C 1017.5 hPa Calm   1.6 km/h 57% 0 mm SCT
13:50 29.3 °C 20.5 °C 1017.5 hPa Calm   1.6 km/h 59% 0 mm SCT
13:55 29.4 °C 19.8 °C 1017.5 hPa NNW 1.6 km/h 3.2 km/h 56% 0 mm SCT
14:00 29.2 °C 19.8 °C 1017.5 hPa Calm   1.6 km/h 57% 0 mm SCT
14:05 29.2 °C 19.8 °C 1017.5 hPa Calm   1.6 km/h 57% 0 mm SCT
14:10 29.4 °C 19.9 °C 1017.5 hPa WSW 1.6 km/h 3.2 km/h 57% 0 mm SCT
14:15 29.1 °C 20 °C 1017.5 hPa Calm   1.6 km/h 58% 0 mm SCT
14:20 29.1 °C 19.7 °C 1017.5 hPa Calm   4.8 km/h 57% 0 mm SCT
14:25 28.9 °C 19.5 °C 1017.5 hPa West 1.6 km/h 8 km/h 57% 0 mm SCT
14:30 29 °C 19.9 °C 1017.5 hPa West 1.6 km/h 1.6 km/h 58% 0 mm SCT
14:35 29.2 °C 19.8 °C 1017.5 hPa Calm   1.6 km/h 57% 0 mm SCT
14:40 29.3 °C 20.2 °C 1017.5 hPa Calm   1.6 km/h 58% 0 mm SCT
14:45 29.3 °C 19.3 °C 1017.5 hPa NNE 1.6 km/h 3.2 km/h 55% 0 mm SCT
14:50 29.1 °C 19.7 °C 1017.5 hPa SE 3.2 km/h 8 km/h 57% 0 mm SCT
14:55 29 °C 19.9 °C 1017.5 hPa WNW 1.6 km/h 1.6 km/h 58% 0 mm SCT
15:00 29.1 °C 19.7 °C 1017.5 hPa Calm   3.2 km/h 57% 0 mm SCT
15:10 29.1 °C 19.7 °C 1017.2 hPa Calm   8 km/h 57% 0 mm SCT
15:15 29.2 °C 18.9 °C 1017.2 hPa WNW 1.6 km/h 4.8 km/h 54% 0 mm SCT
15:20 29.1 °C 19.1 °C 1017.2 hPa Calm   3.2 km/h 55% 0 mm SCT
15:25 29.2 °C 19.4 °C 1017.2 hPa Calm   3.2 km/h 56% 0 mm SCT
15:30 29.2 °C 18.6 °C 1017.2 hPa WSW 1.6 km/h 3.2 km/h 53% 0 mm SCT
15:35 29 °C 18.4 °C 1017.2 hPa SSW 1.6 km/h 8 km/h 53% 0 mm SCT
15:40 28.9 °C 18.7 °C 1016.8 hPa Calm   4.8 km/h 54% 0 mm SCT
15:45 28.9 °C 19.3 °C 1016.8 hPa Calm   1.6 km/h 56% 0 mm SCT
15:50 29 °C 19.3 °C 1016.8 hPa Calm   4.8 km/h 56% 0 mm SCT
15:55 29.1 °C 18.5 °C 1016.8 hPa SSW 1.6 km/h 8 km/h 53% 0 mm SCT
16:00 28.9 °C 18.4 °C 1016.5 hPa Calm   3.2 km/h 53% 0 mm SCT
16:05 28.9 °C 19.3 °C 1016.8 hPa Calm   3.2 km/h 56% 0 mm SCT
16:10 29 °C 19.3 °C 1016.8 hPa Calm   1.6 km/h 56% 0 mm SCT
16:15 28.8 °C 19.1 °C 1016.5 hPa Calm   1.6 km/h 56% 0 mm SCT
16:20 28.7 °C 19 °C 1016.8 hPa ENE 1.6 km/h 3.2 km/h 56% 0 mm SCT
16:25 28.7 °C 19 °C 1016.8 hPa Calm   1.6 km/h 56% 0 mm SCT
16:30 28.6 °C 19.2 °C 1016.5 hPa ESE 1.6 km/h 4.8 km/h 57% 0 mm SCT
16:35 28.5 °C 19.1 °C 1016.5 hPa Calm   1.6 km/h 57% 0 mm SCT
16:40 28.4 °C 19.9 °C 1016.5 hPa Calm   3.2 km/h 60% 0 mm SCT
16:45 28.4 °C 19.4 °C 1016.8 hPa Calm   3.2 km/h 58% 0 mm SCT
16:50 28.3 °C 19.8 °C 1016.8 hPa Calm   1.6 km/h 60% 0 mm SCT
16:55 28.2 °C 19.2 °C 1016.8 hPa Calm   1.6 km/h 58% 0 mm SCT
17:00 28.1 °C 19.3 °C 1016.8 hPa Calm   1.6 km/h 59% 0 mm SCT
17:05 28.2 °C 18.9 °C 1016.8 hPa Calm   4.8 km/h 57% 0 mm SCT
17:10 28.3 °C 19 °C 1016.8 hPa Calm   3.2 km/h 57% 0 mm SCT
17:15 28.4 °C 19.3 °C 1016.8 hPa Calm   1.6 km/h 58% 0 mm SCT
17:20 28.4 °C 19.8 °C 1016.8 hPa Calm     60% 0 mm SCT
17:25 28.6 °C 19.8 °C 1016.8 hPa Calm   1.6 km/h 59% 0 mm SCT
17:30 28.7 °C 19.3 °C 1016.8 hPa WNW 1.6 km/h 3.2 km/h 57% 0 mm SCT
17:35 28.7 °C 19.4 °C 1016.8 hPa Calm   3.2 km/h 57% 0 mm SCT
17:40 28.7 °C 19.3 °C 1016.8 hPa Calm   1.6 km/h 57% 0 mm SCT
17:45 28.7 °C 19.7 °C 1016.5 hPa Calm   1.6 km/h 58% 0 mm SCT
18:00 28.6 °C 19.5 °C 1016.5 hPa Calm   1.6 km/h 58% 0 mm SCT
18:05 28.4 °C 18.8 °C 1016.5 hPa Calm   1.6 km/h 56% 0 mm SCT
18:15 28.2 °C 18.9 °C 1016.5 hPa Calm   1.6 km/h 57% 0 mm SCT
18:20 28.3 °C 19 °C 1016.5 hPa Calm   1.6 km/h 57% 0 mm SCT
18:25 28.4 °C 18.8 °C 1016.5 hPa Calm   3.2 km/h 56% 0 mm SCT
18:30 28.2 °C 18.6 °C 1016.5 hPa Calm   4.8 km/h 56% 0 mm SCT
18:35 28.2 °C 18.6 °C 1016.5 hPa Calm   1.6 km/h 56% 0 mm SCT
18:40 28.1 °C 18.5 °C 1016.5 hPa Calm   1.6 km/h 56% 0 mm SCT
18:45 28.1 °C 18.7 °C 1016.5 hPa Calm   3.2 km/h 57% 0 mm SCT
18:50 27.9 °C 18.8 °C 1016.5 hPa Calm   1.6 km/h 58% 0 mm SCT
18:55 27.7 °C 18.7 °C 1016.5 hPa Calm     58% 0 mm SCT
19:00 27.5 °C 19.1 °C 1016.5 hPa Calm   1.6 km/h 60% 0 mm SCT
19:05 27.3 °C 18.9 °C 1016.5 hPa Calm     60% 0 mm SCT
19:10 27.2 °C 19.6 °C 1016.5 hPa Calm     63% 0 mm SCT
19:15 27.2 °C 19.8 °C 1016.5 hPa Calm     64% 0 mm SCT
19:20 27 °C 19.9 °C 1016.5 hPa Calm   1.6 km/h 65% 0 mm SCT
19:25 26.8 °C 19.4 °C 1016.5 hPa Calm     64% 0 mm SCT
19:30 26.7 °C 19.3 °C 1016.5 hPa Calm     64% 0 mm SCT
19:35 26.7 °C 19.3 °C 1016.5 hPa Calm     64% 0 mm SCT
19:40 26.6 °C 19.2 °C 1016.5 hPa Calm     64% 0 mm SCT
19:45 26.5 °C 19.1 °C 1016.5 hPa Calm   1.6 km/h 64% 0 mm SCT
19:50 26.4 °C 19.3 °C 1016.5 hPa Calm   1.6 km/h 65% 0 mm SCT
19:55 26.3 °C 19.4 °C 1016.5 hPa Calm     66% 0 mm SCT
20:00 26.2 °C 19.4 °C 1016.5 hPa Calm     66% 0 mm SCT
20:05 26.1 °C 19.4 °C 1016.5 hPa Calm     67% 0 mm SCT
20:10 25.9 °C 19.3 °C 1016.5 hPa Calm     67% 0 mm SCT
20:15 25.8 °C 19.2 °C 1016.5 hPa Calm     67% 0 mm SCT
20:20 25.7 °C 19.3 °C 1016.8 hPa Calm   1.6 km/h 68% 0 mm FEW
20:25 25.6 °C 19 °C 1016.8 hPa Calm     67% 0 mm FEW
20:30 25.5 °C 18.9 °C 1016.8 hPa Calm     67% 0 mm FEW
20:35 25.4 °C 18.8 °C 1016.5 hPa Calm   1.6 km/h 67% 0 mm FEW
20:40 25.3 °C 18.9 °C 1016.8 hPa Calm   1.6 km/h 68% 0 mm FEW
20:45 25.2 °C 18.7 °C 1016.8 hPa Calm     67% 0 mm FEW
20:50 25.2 °C 18.6 °C 1016.8 hPa Calm   1.6 km/h 67% 0 mm FEW
20:55 25.1 °C 18.6 °C 1016.8 hPa Calm   1.6 km/h 67% 0 mm FEW
21:00 25 °C 18.2 °C 1016.8 hPa Calm     66% 0 mm FEW
21:05 24.9 °C 18.4 °C 1016.8 hPa Calm     67% 0 mm FEW
21:10 24.8 °C 18.5 °C 1016.8 hPa Calm     68% 0 mm FEW
21:15 24.7 °C 17.9 °C 1016.8 hPa Calm     66% 0 mm FEW
21:25 24.4 °C 17.9 °C 1017.2 hPa Calm     67% 0 mm FEW
21:30 24.3 °C 17.8 °C 1017.2 hPa Calm     67% 0 mm FEW
21:35 24.2 °C 18.2 °C 1017.2 hPa Calm     69% 0 mm FEW
21:40 24.1 °C 18.1 °C 1017.2 hPa Calm     69% 0 mm FEW
21:45 24 °C 17.9 °C 1017.2 hPa Calm     69% 0 mm FEW
21:50 23.8 °C 17.8 °C 1017.2 hPa Calm     69% 0 mm FEW
21:55 23.7 °C 17.7 °C 1017.2 hPa Calm     69% 0 mm FEW
22:00 23.6 °C 18 °C 1017.5 hPa Calm     71% 0 mm FEW
22:05 23.5 °C 17.7 °C 1017.2 hPa Calm     70% 0 mm FEW
22:10 23.4 °C 17.6 °C 1017.5 hPa Calm     70% 0 mm FEW
22:15 23.3 °C 17.7 °C 1017.5 hPa Calm     71% 0 mm FEW
22:20 23.2 °C 17.8 °C 1017.5 hPa Calm     72% 0 mm BKN
22:25 23.1 °C 17.7 °C 1017.5 hPa Calm     72% 0 mm BKN
22:30 22.9 °C 17.2 °C 1017.5 hPa Calm     70% 0 mm BKN
22:35 22.8 °C 17.3 °C 1017.5 hPa Calm     71% 0 mm BKN
22:40 22.8 °C 16.3 °C 1017.5 hPa Calm     67% 0 mm BKN
22:50 22.8 °C 16.6 °C 1017.5 hPa Calm     68% 0 mm BKN
22:55 22.7 °C 16.5 °C 1017.5 hPa Calm     68% 0 mm BKN
23:00 22.7 °C 16.4 °C 1017.5 hPa Calm     68% 0 mm BKN
23:05 22.6 °C 16.8 °C 1017.5 hPa Calm     70% 0 mm BKN
23:15 22.5 °C 17.2 °C 1017.5 hPa Calm     72% 0 mm BKN
23:20 22.4 °C 17.1 °C 1017.5 hPa Calm     72% 0 mm FEW
23:25 22.3 °C 17.4 °C 1017.5 hPa Calm     74% 0 mm FEW
23:30 22.2 °C 17.4 °C 1017.5 hPa Calm     74% 0 mm FEW
23:35 22.2 °C 17.1 °C 1017.5 hPa Calm     73% 0 mm FEW
23:40 22.1 °C 17 °C 1017.5 hPa Calm     73% 0 mm FEW
23:45 22.1 °C 17 °C 1017.5 hPa Calm     73% 0 mm FEW
23:50 22 °C 16.5 °C 1017.5 hPa Calm     71% 0 mm FEW
23:55 21.9 °C 15.9 °C 1017.5 hPa Calm     69% 0 mm FEW
Piedmont Bend
Compliments of Weather Underground - 4 mb